This is the latest recevied weather packets stored in our database for station/object TG8ARF-18. If no packets are shown the sender has not sent any weather packets the latest 10 day(s).
| Time | Temp. | Humidity | Pressure | Rain* | Wind** | Luminosity | Snow |
|---|---|---|---|---|---|---|---|
| 1778022496 | 20.56° C | 83% | 1014 hPa | 0 mm | - | - | - |
| 1778021895 | 20.56° C | 84% | 1014 hPa | 0 mm | - | - | - |
| 1778021294 | 20.56° C | 84% | 1014 hPa | 0 mm | - | - | - |
| 1778020694 | 20.56° C | 83% | 1014 hPa | 0 mm | - | - | - |
| 1778020093 | 20.56° C | 79% | 1014 hPa | 0 mm | - | - | - |
| 1778019493 | 20.56° C | 79% | 1014 hPa | 0 mm | - | - | - |
| 1778018892 | 23.89° C | 78% | 1014 hPa | 0 mm | - | - | - |
| 1778018292 | 20° C | 76% | 1014 hPa | 0 mm | - | - | - |
| 1778017691 | 18.89° C | 76% | 1014 hPa | 0 mm | - | - | - |
| 1778017090 | 18.89° C | 76% | 1014 hPa | 0 mm | - | - | - |
| 1778016490 | 17.78° C | 76% | 1014 hPa | 0 mm | - | - | - |
| 1778015889 | 16.67° C | 76% | 1014 hPa | 0 mm | - | - | - |
| 1778015289 | 25° C | 76% | 1014 hPa | 0 mm | - | - | - |
| 1778014688 | 25° C | 76% | 1014 hPa | 0 mm | - | - | - |
| 1778014088 | 25.56° C | 76% | 1014 hPa | 0 mm | - | - | - |
| 1778013487 | 22.22° C | 73% | 1014 hPa | 0 mm | - | - | - |
| 1778012887 | 21.11° C | 73% | 1014 hPa | 0 mm | - | - | - |
| 1778012286 | 20° C | 73% | 1014 hPa | 0 mm | - | - | - |
| 1778011685 | 18.89° C | 73% | 1014 hPa | 0 mm | - | - | - |
| 1778011085 | 17.78° C | 73% | 1014 hPa | 0 mm | - | - | - |
| 1778010484 | 25° C | 73% | 1014 hPa | 0 mm | - | - | - |
| 1778009884 | 25.56° C | 70% | 1015 hPa | 0 mm | - | - | - |
| 1778009283 | 25.56° C | 70% | 1015 hPa | 0 mm | - | - | - |
| 1778008683 | 25.56° C | 63% | 1015 hPa | 0 mm | - | - | - |
| 1778008082 | 25.56° C | 63% | 1015 hPa | 0 mm | - | - | - |
* Rain latest hour (hover to see other rain measurements)
** Current wind speed in m/s (hover to see current wind gust speed)